Skip Page Navigation
NASA JPL Caltech
NASA Logo - Jet Propulsion Laboratory + View the NASA Portal
+ Near-Earth Object (NEO) Program
Search JPL
JPL Home Earth Solar System Stars & Galaxies Technology
JPL Solar System Dynamics
BODIES ORBITS EPHEMERIDES TOOLS PHYSICAL DATA DISCOVERY FAQ SITE MAP
JPL Small-Body Database Browser
Search: [ help ]  
(2012 BX34)
Classification: Aten [NEO]          SPK-ID: 3596262
Ephemeris | Orbit Diagram | Orbital Elements | Physical Parameters | Close-Approach Data ]

[ show orbit diagram ]
Orbital Elements at Epoch 2456400.5 (2013-Apr-18.0) TDB
Reference: JPL 14 (heliocentric ecliptic J2000)
 Element Value Uncertainty (1-sigma)   Units 
e .3566481356430365 6.4744e-07  
a .7619245917448484 4.613e-07 AU
q .4901856065984664 7.6995e-07 AU
i 10.53555418030172 4.5492e-05 deg
node 306.7989000418715 7.1818e-07 deg
peri 335.6627232947364 8.8047e-05 deg
M 168.1726993797975 0.00051745 deg
tp 2456287.019978913810
(2012-Dec-25.51997891)
0.00024862 JED
period 242.9217568707001
0.67
0.00022061
6.04e-07
d
yr
n 1.481958654661044 1.3459e-06 deg/d
Q 1.03366357689123 6.2583e-07 AU
  Orbit Determination Parameters
   # obs. used (total)      114  
   # delay obs. used      0  
   # Doppler obs. used      1  
   data-arc span      2 days  
   first obs. used      2012-01-25  
   last obs. used      2012-01-27  
   planetary ephem.      DE405  
   SB-pert. ephem.      SB405-CPV-2  
   condition code      3  
   fit RMS      .68702  
   data source      ORB  
   producer      Otto Matic  
   solution date      2012-Feb-06 23:50:28  

Additional Information
 Earth MOID = 1.05909E-5 AU 
 T_jup = 7.532 
[ show covariance matrix ]

Ephemeris | Orbit Diagram | Orbital Elements | Physical Parameters | Close-Approach Data ]

Physical Parameter Table
Parameter Symbol Value Units Sigma Reference Notes
absolute magnitude H 27.619 mag .33445 14 autocmod 2.5b
rotation period rot_per 1.80828 h n/a Asteroid Lightcurve DataBase (Rev. 2013-May-01) Published Reference List:
[Ryan, W. (2012) http://infohost.nmt.edu/~bryan/research/work/ mro_images/]

[ hide close-approach data ]
Close-Approach Data   ...sorted by Date/Time (TDB)
Date/Time (TDB) Time Uncertainty
(days_HH:MM)
Body Nominal Distance (AU) Minimum Distance (AU) Maximum Distance (AU) V-relative (km/s) V-infinity (km/s) JD (TDB) Time Uncertainty (minutes) Semi-major axis (km) Semi-minor axis (km) range-LOV angle (deg) N-sigma BP Orbit Ref. Reference Modified
1955-Nov-30 04:16 1_16:33 Earth 0.191467759755837 0.186841445366726 0.215960195131028 8.70295028174319 8.70135112844581 2435441.678139746 2433.04016777635 1989133.45775632 54.5746315896238 -53.2722327401016 258822.387933193 T 14 CATAB v2.0c-linF95 2012-Feb-06 23:58:48 2012-Feb-07 00:00
1958-Sep-09 02:00 1_08:33 Earth 0.342581221640293 0.334414812781317 0.343276844112415 10.581316392409 10.5805813300485 2436455.583543662 1953.44363384087 365243.170687742 48.290216757853 -39.2784943216784 462531.163768718 T 14 CATAB v2.0c-linF95 2012-Feb-06 23:58:48 2012-Feb-07 00:00
1959-Jan-27 02:52 00:06 Moon 0.00226147744071492 0.00216423564717872 0.00237382968295913 9.7320931508148 9.73060394909498 2436595.620088024 6.59318238358504 10302.2359409289 0.274388527125666 -60.3620286185549 1034938.61357564 T 14 CATAB v2.0c-linF95 2012-Feb-06 23:58:48 2012-Feb-07 00:00
1959-Jan-27 10:37 00:04 Earth 0.00141427452676717 0.00121438504726576 0.00161683704910446 9.59118773057661 9.39270470750266 2436595.942450482 4.40528396478596 6793.88099176217 0.293472758514456 -17.2707201094984 118981.578104034 T 14 CATAB v2.0c-linF95 2012-Feb-06 23:58:48 2012-Feb-07 00:00
1959-Apr-26 22:03 00:03 Mercury 0.095257069062217 0.0951609468106866 0.0953540785853238 13.3434648030636 13.3433489343584 2436685.419282118 3.69490790346571 14626.2357179656 24.5442307062125 70.943035015807 522801.939646987 T 14 CATAB v2.0c-linF95 2012-Feb-06 23:58:48 2012-Feb-07 00:00
1960-Jan-14 22:35 00:04 Mercury 0.0981582981443241 0.0980314226156341 0.0982859800213076 12.842764280174 12.8426474522818 2436948.441369721 4.34625385514352 14663.3416413706 32.448432623616 -65.4814891421724 390819.272828004 T 14 CATAB v2.0c-linF95 2012-Feb-06 23:58:48 2012-Feb-07 00:00
1961-Jun-17 14:50 00:51 Earth 0.472959495117269 0.472957692777377 0.472961339330898 17.4874019195589 17.487079762899 2437468.118099834 51.7103005786461 4928.32692818936 50.658312548158 76.6174736261679 1145779.79466248 T 14 CATAB v2.0c-linF95 2012-Feb-06 23:58:48 2012-Feb-07 00:00
1963-Oct-02 19:06 01:09 Earth 0.320051158195704 0.319815938846312 0.320286534792977 7.30024182317482 7.29910133803839 2438305.296021428 69.46323939049 8883.25523512334 7.21452944324711 -43.6362558350964 2508871.15077428 T 14 CATAB v2.0c-linF95 2012-Feb-06 23:58:48 2012-Feb-07 00:00
1964-Jan-23 00:04 00:14 Earth 0.0526911484453844 0.0524596766575217 0.052922774365875 8.3878036924083 8.38177278597399 2438417.503435515 14.6303972958144 6546.93728179544 3.19218037160968 -6.67572540759472 170668.144322377 T 14 CATAB v2.0c-linF95 2012-Feb-06 23:58:48 2012-Feb-07 00:00
1966-Jun-25 08:25 00:53 Earth 0.471484488195733 0.471476714706733 0.471492300047771 17.7534308580153 17.7531125360955 2439301.850861876 53.9679354377772 5507.51055435442 50.6183924189777 80.9913080714037 1165535.03057748 T 14 CATAB v2.0c-linF95 2012-Feb-06 23:58:48 2012-Feb-07 00:00
1969-Jan-10 14:55 00:21 Earth 0.109310119046817 0.109156966783209 0.109463329307966 7.98557929317955 7.98252628064695 2440232.122082069 21.2326142210265 4844.01635162535 17.5369488025375 -25.9552916973859 237393.857059219 T 14 CATAB v2.0c-linF95 2012-Feb-06 23:58:48 2012-Feb-07 00:00
1971-Jul-04 07:40 00:46 Earth 0.467625884476275 0.467611902874559 0.467639896584653 17.846767401954 17.846448131939 2441136.819855584 46.5007570918166 5062.94065536934 48.1823093659343 84.15146877615 1225017.15696075 T 14 CATAB v2.0c-linF95 2012-Feb-06 23:58:48 2012-Feb-07 00:00
1973-Dec-24 22:14 00:18 Earth 0.150920842536012 0.150837954940042 0.151003801739444 8.11497305320134 8.11279717651576 2442041.426510967 18.5786204185305 4638.07254313773 40.5469694805195 -46.2229987138864 236548.544936754 T 14 CATAB v2.0c-linF95 2012-Feb-06 23:58:48 2012-Feb-07 00:00
1974-Jun-06 19:59 00:18 Venus 0.146954468641268 0.146942175013257 0.146967337240222 13.2999520269791 13.2988409242232 2442205.333222779 18.8106946242312 10292.7183013224 31.654626767697 -75.3174252991724 530633.299365538 T 14 CATAB v2.0c-linF95 2012-Feb-06 23:58:48 2012-Feb-07 00:00
1976-Jul-12 19:46 00:39 Earth 0.460725670679565 0.460707930007076 0.460743445019599 17.6705265088901 17.6701992251156 2442972.324157136 39.0836404800947 4492.73647042278 45.2506952743804 87.1883066786676 1286688.65706606 T 14 CATAB v2.0c-linF95 2012-Feb-06 23:58:48 2012-Feb-07 00:00
1978-Sep-19 05:22 00:20 Venus 0.148014613256464 0.147990922617085 0.14803858968809 13.3960369017475 13.3949416706192 2443770.724288752 20.468969125288 8183.780658756 30.4887708318137 -83.3971431911655 571368.905849465 T 14 CATAB v2.0c-linF95 2012-Feb-06 23:58:48 2012-Feb-07 00:00
1978-Dec-07 19:05 00:08 Earth 0.181688300537363 0.181624816293816 0.181751907618 8.94834224452126 8.94670323083287 2443850.295397421 8.39081108088385 5638.85431400176 53.2152619771022 -50.6481418088213 247196.333717659 T 14 CATAB v2.0c-linF95 2012-Feb-06 23:58:48 2012-Feb-07 00:00
1979-Apr-05 16:21 01:03 Earth 0.369165119214753 0.369045340108172 0.369284899795902 6.90482227903828 6.90377690414309 2443969.181435825 63.4991824550234 3204.82796647733 21.3561311883779 -11.0237310772569 260312.004102124 T 14 CATAB v2.0c-linF95 2012-Feb-06 23:58:48 2012-Feb-07 00:00
1981-Jul-22 18:45 00:32 Earth 0.450700023505896 0.450698767048355 0.45070128684132 17.1903573097296 17.1900134001971 2444808.281497298 32.3378341360664 3878.67066765913 42.146186720698 -89.532190353093 1342212.54154919 T 14 CATAB v2.0c-linF95 2012-Feb-06 23:58:48 2012-Feb-07 00:00
1982-Jan-18 06:47 00:01 Earth 0.463263637682326 0.463104751535287 0.463422528596266 23.4386850647666 23.4384396768515 2444987.783310376 1.8525580188913 8160.66523112597 17.3564902541965 1.682297151778 105775.770910503 T 14 CATAB v2.0c-linF95 2012-Feb-06 23:58:48 2012-Feb-07 00:00
1983-Nov-30 15:32 00:01 Earth 0.224280707132159 0.224195274008705 0.224366209816702 11.4164793497908 11.4154386917693 2445669.147609014 1.03755313461105 6162.87671673288 58.9927952790975 -41.5009582997544 269613.00554652 T 14 CATAB v2.0c-linF95 2012-Feb-06 23:58:48 2012-Feb-07 00:00
1984-Apr-23 01:47 00:40 Earth 0.409450209977814 0.409387580483031 0.409512840366621 10.3054845951027 10.3048531201291 2445813.574307565 40.8844665268546 2217.16021851905 20.3651283462567 16.9892041067011 596670.263155313 T 14 CATAB v2.0c-linF95 2012-Feb-06 23:58:48 2012-Feb-07 00:00
1986-Aug-02 05:41 00:25 Earth 0.43742645341125 0.437420628712783 0.437432290830896 16.3945375959503 16.3941660495485 2446644.736841736 25.2567585397468 3126.81214945005 38.9205435876364 -85.6470417249781 1386371.92199615 T 14 CATAB v2.0c-linF95 2012-Feb-06 23:58:48 2012-Feb-07 00:00
1987-Jan-22 00:39 00:01 Earth 0.370903573093885 0.370779958229236 0.37102718936044 20.4207138031351 20.4203620125932 2446817.527523352 1.49303246360562 6243.8839548763 14.5251995660181 1.99787832439982 116722.410524893 T 14 CATAB v2.0c-linF95 2012-Feb-06 23:58:48 2012-Feb-07 00:00
1987-Apr-04 02:36 00:02 Mercury 0.0934546660167627 0.0934303579776896 0.0934792550762369 13.0821425436818 13.0820220810824 2446889.608783006 2.06450952701323 7783.95812339148 28.6659606786967 80.8631843104622 457882.26490333 T 14 CATAB v2.0c-linF95 2012-Feb-06 23:58:48 2012-Feb-07 00:00
1988-Nov-29 20:55 < 00:01 Earth 0.288782653670172 0.288699512225291 0.288865816964741 14.4915426552737 14.4909059533349 2447495.372106194 0.638062186443715 5190.09723568516 63.1489885273031 -32.2189634949914 289101.077643052 T 14 CATAB v2.0c-linF95 2012-Feb-06 23:58:48 2012-Feb-07 00:00
